BREEZE-M DEB, 34252

Orbit data source: Space-Track

BREEZE-M DEB, 34252 is space debris in HEO originally from a launch on Tue, 28 Feb 2006 UTC launched from the Tyuratam Missile And Space Complex (TTMTR). Debris objects in space refer to the collection of defunct objects orbiting the Earth. Examples of debris include non-operational satellites, rocket bodies, and fragments generated from explosions, collisions, or faulty payload assembly.

Loading next visibility...
Identifier
34252, 2006-006BT
Orbit
HEO
Country
Flag of CISCIS
Related business
Manufacturer
Khrunichev
Mission
Spacecraft
Bus & Motor
Unknown
Mass
Unknown
Launch date (UTC)
2006-02-28 (20 years ago)
Launch vehicle
Unknown
Launch site
Tyuratam Missile And Space Complex (TTMTR)
Object type
Payload
Rocket body
Debris
Shape & HBR
Unknown shape, 0.1 m
Radar Cross Section
Medium (>0.1 m² and <1 m²)

Expand to show TLE details & history
Last TLE update: 9 months ago

TLE from 9 months ago
0 BREEZE-M DEB
1 34252U 06006BT  25252.98713064  .00000558  00000-0  99233-3 0  9999
2 34252  51.6853  18.4618 5082912 230.6790  72.1721  5.25225453337835
Epoch: 2025-09-09T23:41Z
TLE epoch observation values (Epoch: 2025-09-09T23:41:28.087Z)
Latitude
0.00001°
Longitude
33.81577°
Altitude
8,930.557 km
Speed
4.855 km/s
True Right ascension
01h 13m 48s
True Declination
0° 00' 00"
Sunlit
Object was in daylight at epoch
Visualization orbit readout
Latitude
Unknown
Longitude
Unknown
Altitude
Unknown
Speed
Unknown
Apparent Right ascension
Unknown
Apparent Declination
Unknown
Sunlit
N/A
Visualization observer readout
Local Sidereal Time
19:40:48
Azimuth
Unknown
Elevation
Unknown
Doppler factor
Unknown
Orbital elements
Apogee altitude
14,708.235 km
Perigee altitude
496.102 km
Semi-major axis
13,980.306 km
Eccentricity
0.50829
Inclination
51.6853°
RAAN
18.4618°
Arg. of periapsis
230.679°
True anomaly
129.41807°
Mean anomaly
72.1721°
Eccentric anomaly
100.781°
Mean motion
1.31301 °/min
Orbital period
274.18 mins
BSTAR
0.00099233
Loading maneuver chart data...
Computing Atmospheric mass density...
Loading historical data...
Loading historical data...
Loading historical data...
Loading historical data...
Loading historical data...
Loading historical data...
Loading historical data...

Documentation

Showing up to 5 results
|